Regional Weather Roundup
Issued by NWS

Home | Current Version | Previous Version | Text Only | Print | Product List | Glossary On
Versions: 1 2 3 4 5 6 7 8 9 10 11 12 13 14 15 16 17 18 19 20 21 22 23 24 25 26 27
000
ASUS45 KREV 250510
RWRNV
NEVADA REGIONAL WEATHER ROUNDUP
NATIONAL WEATHER SERVICE RENO NV
1000 PM PDT WED MAY 24 2017

NOTE: "FAIR" INDICATES FEW OR NO CLOUDS BELOW 12,000 FEET WITH NO
SIGNIFICANT WEATHER AND/OR OBSTRUCTIONS TO VISIBILITY.

NVZ001-003-004-250600-
WESTERN NEVADA

CITY           SKY/WX    TMP DP  RH WIND       PRES   REMARKS
RENO           MOCLDY    69  27  20 W9        29.76S
CARSON CITY    FAIR      64  30  27 W10G16    29.81R
MINDEN         FAIR      57  28  33 SW6       29.81S
FALLON         PTCLDY    68  21  16 W10       29.70R
LOVELOCK       CLOUDY    71  38  29 SW13      29.67R
HAWTHORNE      CLEAR     75   9   7 CALM      29.72R
$$

NVZ002-CAZ072-073-250600-
NORTHERN AND CENTRAL SIERRA

CITY           SKY/WX    TMP DP  RH WIND       PRES   REMARKS
S. LAKE TAHOE  PTCLDY    52  32  46 S6        29.88S
TRUCKEE        MOCLDY    48  32  53 CALM      29.88S
SQUAW VLY 8000   N/A     37  32  81 SW12        N/A
SUSANVILLE     CLEAR     66  37  34 W14       29.73R
MAMMOTH LAKES  FAIR      62  14  15 SW30G38   29.95S
BRIDGEPORT     FAIR      52  26  36 VRB5      29.88S
$$

NVZ030-031-036-250600-
NORTHERN NEVADA

CITY           SKY/WX    TMP DP  RH WIND       PRES   REMARKS
ELKO           CLOUDY    60  32  34 NW14G32   29.68R
WINNEMUCCA     CLOUDY    62  24  23 N17G24    29.71R
WENDOVER       MOCLDY    69  41  36 NW12G23   29.56R
$$

NVZ035-037-250600-
CENTRAL NEVADA

CITY           SKY/WX    TMP DP  RH WIND       PRES   REMARKS
ELY            CLOUDY    50  37  61 SE7       29.74R
EUREKA           N/A     67  22  18 W13G21    29.72R
$$

NVZ013-014-250600-
SOUTH CENTRAL NEVADA

CITY           SKY/WX    TMP DP  RH WIND       PRES   REMARKS
TONOPAH        PTCLDY    69  21  16 NW16      29.76R
$$

NVZ017-020-022-250600-
SOUTHERN NEVADA

CITY           SKY/WX    TMP DP  RH WIND       PRES   REMARKS
LAS VEGAS      PTCLDY    89  24   9 SW12      29.55R
N. LAS VEGAS   PTCLDY    90  25   9 W18G24    29.54R
NELLIS AFB     PTCLDY    89  23   9 SW14      29.51R
HENDERSON      PTCLDY    86  30  13 S22       29.60R
MERCURY        MOCLDY    83  26  12 S8        29.61R
$$




USA.gov is the U.S. government's official web portal to all federal, state and local government web resources and services.